White Plains, CT

4:04 AM EDT on July 22, 2017 (GMT -0400)
Westchester County

Weather History for KHPN - October, 2012

Change the Weather History Date:

Tuesday, October 23, 2012

  Actual Average Record
Temperature  
Mean Temperature 54 °F -  
Max Temperature 64 °F 57 °F 77 °F (1978)
Min Temperature 48 °F 41 °F 30 °F (1997)
Degree Days  
Heating Degree Days 10    
Growing Degree Days 4 (Base 50)    
Moisture  
Dew Point 47 °F    
Average Humidity 77    
Maximum Humidity 93    
Minimum Humidity 56    
Precipitation  
Precipitation 0.07 in - - ()
Sea Level Pressure  
Sea Level Pressure 30.09 in    
Wind  
Wind Speed 4 mph (NNW)    
Max Wind Speed 9 mph    
Max Gust Speed -    
Visibility 10 miles    
Events Rain    
Averages and records for this station are not official NWS values.
T = Trace of Precipitation, MM = Missing Value Source: NWS Daily Summary

Daily Weather History Graph

Daily Weather History Graph

Search for Another Location

Airport or City:

Trip Planner

Search our weather history database for the weather conditions in past years. The results will help you decide how hot, cold, wet, or windy it might be!

Date:

Astronomy

Oct. 23, 2012 Rise Set
Actual Time 7:15 AM EDT 6:01 PM EDT
Civil Twilight 6:47 AM EDT 6:29 PM EDT
Nautical Twilight 6:15 AM EDT 7:01 PM EDT
Astronomical Twilight 5:43 AM EDT 7:33 PM EDT
Moon 2:46 PM EDT (10/23) 1:01 AM EDT (10/23)
Length of Visible Light 11h 42m
Length of Day
10h 45m
Waxing Gibbous, 66% of the Moon is Illuminated
Oct 23
Waxing Gibbous
Oct 29
Full
Nov 6
Last Quarter
Nov 13
New
Nov 20
First Quarter

Hourly Weather History & Observations

Time (EDT) Temp. Dew Point Humidity Pressure Visibility Wind Dir Wind Speed Gust Speed Precip Events Conditions
12:56 AM 52.0 °F 43.0 °F 71% 30.06 in 10.0 mi NW 6.9 mph - N/A   Clear
1:56 AM 55.0 °F 43.0 °F 64% 30.06 in 10.0 mi NW 9.2 mph - N/A   Clear
2:56 AM 50.0 °F 42.1 °F 74% 30.06 in 10.0 mi NNW 6.9 mph - N/A   Clear
3:56 AM 48.9 °F 43.0 °F 80% 30.06 in 10.0 mi Calm Calm - N/A   Clear
4:56 AM 48.9 °F 42.1 °F 77% 30.07 in 10.0 mi Calm Calm - N/A   Clear
5:56 AM 48.0 °F 44.1 °F 86% 30.09 in 10.0 mi NW 4.6 mph - N/A   Clear
6:56 AM 48.9 °F 44.1 °F 83% 30.09 in 10.0 mi NW 4.6 mph - N/A   Mostly Cloudy
7:56 AM 51.1 °F 43.0 °F 74% 30.11 in 10.0 mi NW 5.8 mph - N/A   Scattered Clouds
8:56 AM 55.9 °F 45.0 °F 67% 30.12 in 10.0 mi NNW 5.8 mph - N/A   Partly Cloudy
11:56 AM 61.0 °F 45.0 °F 56% 30.11 in 10.0 mi NW 5.8 mph - 0.00 in Rain Light Rain
12:56 PM 59.0 °F 48.0 °F 67% 30.10 in 10.0 mi NW 4.6 mph - 0.00 in   Mostly Cloudy
1:56 PM 59.0 °F 48.0 °F 67% 30.09 in 10.0 mi NNW 6.9 mph - N/A   Mostly Cloudy
2:56 PM 57.9 °F 48.9 °F 72% 30.08 in 10.0 mi NNW 3.5 mph - 0.00 in Rain Light Rain
3:56 PM 57.9 °F 50.0 °F 75% 30.08 in 10.0 mi Calm Calm - 0.00 in   Overcast
4:56 PM 57.9 °F 50.0 °F 75% 30.07 in 10.0 mi NW 3.5 mph - N/A   Mostly Cloudy
5:56 PM 57.0 °F 51.1 °F 81% 30.09 in 10.0 mi Calm Calm - 0.00 in   Overcast
6:56 PM 55.9 °F 51.1 °F 84% 30.09 in 10.0 mi Calm Calm - 0.00 in   Mostly Cloudy
7:56 PM 55.9 °F 52.0 °F 87% 30.09 in 6.0 mi Calm Calm - 0.01 in Rain Light Rain
8:56 PM 55.0 °F 53.1 °F 93% 30.09 in 8.0 mi NNE 3.5 mph - 0.05 in Rain Light Rain
9:56 PM 55.0 °F 52.0 °F 89% 30.10 in 10.0 mi North 3.5 mph - 0.01 in   Overcast
10:56 PM 55.0 °F 51.1 °F 86% 30.09 in 10.0 mi Calm Calm - 0.00 in   Overcast
11:56 PM 55.0 °F 51.1 °F 86% 30.09 in 8.0 mi Calm Calm - N/A   Overcast